Morrisville, VT

9:31 AM EDT on October 17, 2019 (GMT -0400)
Morrisville Stowe State

Weather History for KMVL - August, 2019

Change the Weather History Date:

Friday, August 23, 2019

  Actual Average Record
Temperature  
Mean Temperature 60 °F 65 °F  
Max Temperature 72 °F 77 °F 84 °F (2008)
Min Temperature 48 °F 52 °F 43 °F (2016)
Degree Days  
Heating Degree Days 5 2  
Month to date heating degree days 27 41  
Since 1 June heating degree days 180 194  
Since 1 July heating degree days 37 71  
Cooling Degree Days 0 2  
Month to date cooling degree days 57 62  
Year to date cooling degree days 239 230  
Since 1 June cooling degree days 238 222  
Growing Degree Days 10 (Base 50)    
Moisture  
Dew Point 51 °F    
Average Humidity 75    
Maximum Humidity 100    
Minimum Humidity 45    
Precipitation  
Precipitation 0.00 in 0.12 in 0.19 in (2007)
Month to date precipitation 3.05 3.15  
Year to date precipitation 26.49 22.88  
Sea Level Pressure  
Sea Level Pressure 30.02 in    
Wind  
Wind Speed 2 mph ()    
Max Wind Speed 15 mph    
Max Gust Speed 23 mph    
Visibility 10.0 miles    
Events      
T = Trace of Precipitation, MM = Missing Value Source: Averaged Metar Reports

Daily Weather History Graph

Daily Weather History Graph

Search for Another Location

Airport or City:

Astronomy

Aug. 23, 2019 Rise Set
Actual Time 6:02 AM EDT 7:43 PM EDT
Civil Twilight 5:31 AM EDT 8:13 PM EDT
Nautical Twilight 4:53 AM EDT 8:51 PM EDT
Astronomical Twilight 4:13 AM EDT 9:31 PM EDT
Moon 11:49 PM EDT (8/23) 1:54 PM EDT (8/23)
Length of Visible Light 14h 42m
Length of Day
13h 40m
Waning Gibbous, 50% of the Moon is Illuminated
Aug 23
Waning Gibbous
Aug 30
New
Sep 5
First Quarter
Sep 14
Full
Sep 21
Last Quarter

Hourly Weather History & Observations

Time (EDT) Temp. Dew Point Humidity Pressure Visibility Wind Dir Wind Speed Gust Speed Precip Events Conditions
12:54 AM 54.0 °F 53.1 °F 97% 29.93 in 10.0 mi Calm Calm - N/A   Mostly Cloudy
1:54 AM 54.0 °F 52.0 °F 93% 29.93 in 10.0 mi Calm Calm - N/A   Mostly Cloudy
2:54 AM 55.0 °F 53.1 °F 93% 29.94 in 10.0 mi Calm Calm - N/A   Mostly Cloudy
3:54 AM 53.1 °F 52.0 °F 96% 29.94 in 10.0 mi Calm Calm - N/A   Mostly Cloudy
4:54 AM 52.0 °F 51.1 °F 97% 29.94 in 10.0 mi SSW 4.6 mph - N/A   Clear
5:54 AM 52.0 °F 50.0 °F 93% 29.97 in 10.0 mi Calm Calm - N/A   Partly Cloudy
6:54 AM 53.1 °F 51.1 °F 93% 29.99 in 10.0 mi Calm Calm - N/A   Clear
7:54 AM 59.0 °F 55.0 °F 87% 30.00 in 10.0 mi SE 3.5 mph - N/A   Scattered Clouds
8:54 AM 63.0 °F 54.0 °F 72% 30.01 in 10.0 mi North 9.2 mph - N/A   Overcast
9:54 AM 64.0 °F 54.0 °F 70% 30.02 in 10.0 mi NNE 4.6 mph - N/A   Mostly Cloudy
10:04 AM 66.0 °F 55.9 °F 70% 30.02 in 10.0 mi ENE 6.9 mph - N/A   Mostly Cloudy
10:19 AM 64.0 °F 55.0 °F 73% 30.02 in 10.0 mi ESE 4.6 mph - N/A   Overcast
10:46 AM 64.9 °F 55.0 °F 70% 30.02 in 10.0 mi Calm Calm - N/A   Overcast
10:54 AM 64.9 °F 54.0 °F 68% 30.03 in 10.0 mi Calm Calm - N/A   Overcast
11:54 AM 66.9 °F 51.1 °F 57% 30.03 in 10.0 mi North 8.1 mph - N/A   Mostly Cloudy
12:54 PM 66.9 °F 48.9 °F 52% 30.02 in 10.0 mi North 10.4 mph - N/A   Overcast
1:54 PM 70.0 °F 48.0 °F 46% 30.02 in 10.0 mi WNW 6.9 mph - N/A   Mostly Cloudy
2:54 PM 70.0 °F 48.0 °F 46% 30.03 in 10.0 mi Variable 5.8 mph - N/A   Mostly Cloudy
3:54 PM 68.0 °F 46.9 °F 47% 30.04 in 10.0 mi NW 8.1 mph 21.9 mph N/A   Overcast
4:54 PM 68.0 °F 48.0 °F 49% 30.04 in 10.0 mi Variable 6.9 mph - N/A   Overcast
5:54 PM 68.0 °F 48.9 °F 50% 30.06 in 10.0 mi NNW 9.2 mph - N/A   Mostly Cloudy
6:54 PM 64.9 °F 48.9 °F 56% 30.06 in 10.0 mi NW 5.8 mph - N/A   Clear
7:54 PM 57.0 °F 51.1 °F 81% 30.09 in 10.0 mi Calm Calm - N/A   Clear
8:54 PM 53.1 °F 48.9 °F 86% 30.10 in 10.0 mi Calm Calm - N/A   Clear
9:54 PM 51.1 °F 48.0 °F 89% 30.10 in 10.0 mi Calm Calm - N/A   Clear
10:54 PM 51.1 °F 48.9 °F 92% 30.11 in 10.0 mi Calm Calm - N/A   Mostly Cloudy
11:54 PM 50.0 °F 48.0 °F 93% 30.11 in 10.0 mi Calm Calm - N/A   Mostly Cloudy